User: anonymous   Login
Location: Unspecified
(0.0000°N, 0.0000°E)
Time: 23:54:04
(UTC+00:00)
Language:

PAYLOAD G - Orbit

View from above orbital plane
View from above orbital plane
View from above satellite
View from above satellite

Ground track
Ground track

The orbit data is extracted from the following two-line orbital elements,

1 27846U 03031G   21023.76159801  .00000037  00000-0  36119-4 0  9993
2 27846  98.6846  32.7195 0010379 109.7501 250.4797 14.22302088911601
Epoch (UTC): 23 January 2021 18:16:42
Eccentricity: 0.0010379
inclination: 98.6846°
perigee height: 810 km
apogee height: 825 km
right ascension of ascending node: 32.7195°
argument of perigee: 109.7501°
revolutions per day: 14.22302088
mean anomaly at epoch: 250.4797°
orbit number at epoch: 91160

The dashed part of the orbit path shows where the satellite is in the earth's shadow,  

DLR